Location: Lafig�re
(44.4503°N, 4.0357°E)
Time: 16:42:55
(UTC+00:00)

USA 234 - Pass Details

Date: 24 September 2020
Orbit: 1102 x 1106 km, 123.0° (Epoch: 16 October)

Event Time Altitude Azimuth Distance (km) Brightness Sun altitude
Exits shadow 19:38:13 27° 156° (SSE) 1,987 4.2 -22.0°
Drops below altitude 10° 19:41:58 10° 187° (S) 2,954 5.4 -22.6°
Sets 19:44:46 0° 198° (SSW) 3,909 6.1 -23.1°
